Elk City, ID

7:07 AM PST on January 16, 2017 (GMT -0800)
Lowell

Weather History for KP69 - February, 2013

Change the Weather History Date:

Friday, February 15, 2013

  Actual Average Record
Temperature  
Mean Temperature 44 °F -  
Max Temperature 57 °F 43 °F 57 °F (2013)
Min Temperature 32 °F 28 °F 16 °F (2006)
Degree Days  
Heating Degree Days 21    
Moisture  
Dew Point 35 °F    
Average Humidity 83    
Maximum Humidity 96    
Minimum Humidity 52    
Precipitation  
Precipitation 0.00 in - - ()
Sea Level Pressure  
Sea Level Pressure 30.52 in    
Wind  
Wind Speed 0 mph (NNW)    
Max Wind Speed 5 mph    
Max Gust Speed -    
Averages and records for this station are not official NWS values.
T = Trace of Precipitation, MM = Missing Value Source: NWS Daily Summary

Daily Weather History Graph

Daily Weather History Graph

Search for Another Location

Airport or City:

Trip Planner

Search our weather history database for the weather conditions in past years. The results will help you decide how hot, cold, wet, or windy it might be!

Date:

Astronomy

Feb. 15, 2013 Rise Set
Actual Time 7:43 AM MST 6:08 PM MST
Civil Twilight 7:12 AM MST 6:39 PM MST
Nautical Twilight 6:38 AM MST 7:14 PM MST
Astronomical Twilight 6:03 AM MST 7:48 PM MST
Moon 10:01 AM MST (2/15) No Moon Set
Length of Visible Light 11h 26m
Length of Day
10h 25m
Waxing Crescent, 31% of the Moon is Illuminated
Feb 15
Waxing Crescent
Feb 17
First Quarter
Feb 25
Full
Mar 4
Last Quarter
Mar 11
New

Hourly Weather History & Observations

Time (MST) Temp. Windchill Dew Point Humidity Pressure Visibility Wind Dir Wind Speed Gust Speed Precip Events Conditions
12:52 AM 37.0 °F - 35.1 °F 93% 30.61 in - Calm Calm - N/A   Unknown
1:52 AM 37.0 °F - 34.0 °F 89% 30.59 in - Calm Calm - N/A   Unknown
2:52 AM 37.0 °F - 35.1 °F 93% 30.60 in - Calm Calm - N/A   Unknown
3:52 AM 37.0 °F - 35.1 °F 93% 30.60 in - Calm Calm - N/A   Unknown
4:52 AM 36.0 °F - 34.0 °F 93% 30.60 in - Calm Calm - N/A   Unknown
5:52 AM 36.0 °F - 34.0 °F 93% 30.61 in - Calm Calm - N/A   Unknown
6:52 AM 36.0 °F - 34.0 °F 93% 30.61 in - Calm Calm - N/A   Unknown
7:52 AM 36.0 °F - 34.0 °F 93% 30.61 in - Calm Calm - N/A   Unknown
8:52 AM 36.0 °F - 34.0 °F 93% 30.63 in - Calm Calm - N/A   Unknown
9:52 AM 37.9 °F - 34.0 °F 86% 30.62 in - Calm Calm - N/A   Unknown
10:52 AM 44.1 °F - 35.1 °F 71% 30.59 in - Calm Calm - N/A   Unknown
11:52 AM 48.0 °F - 35.1 °F 61% 30.56 in - Calm Calm - N/A   Unknown
12:52 PM 53.1 °F - 36.0 °F 52% 30.51 in - North 3.5 mph - N/A   Unknown
1:52 PM 54.0 °F - 37.9 °F 55% 30.46 in - Calm Calm - N/A   Unknown
2:52 PM 55.9 °F - 39.9 °F 55% 30.43 in - Calm Calm - N/A   Unknown
3:52 PM 52.0 °F - 37.9 °F 59% 30.42 in - Calm Calm - N/A   Unknown
4:52 PM 42.1 °F - 35.1 °F 76% 30.43 in - Calm Calm - N/A   Unknown
5:52 PM 39.0 °F - 35.1 °F 86% 30.43 in - Calm Calm - N/A   Unknown
6:52 PM 37.9 °F 35.5 °F 34.0 °F 86% 30.43 in - North 3.5 mph - N/A   Unknown
7:52 PM 36.0 °F 33.3 °F 34.0 °F 93% 30.44 in - NNW 3.5 mph - N/A   Unknown
8:52 PM 35.1 °F - 33.1 °F 92% 30.44 in - Calm Calm - N/A   Unknown
9:52 PM 34.0 °F - 33.1 °F 96% 30.44 in - Calm Calm - N/A   Unknown
10:52 PM 33.1 °F 28.7 °F 30.9 °F 92% 30.43 in - NNW 4.6 mph - N/A   Unknown
11:52 PM 32.0 °F - 30.9 °F 96% 30.41 in - Calm Calm - N/A   Unknown